Harare Kutsaga, Zimbabwe

9:56 PM CAT on October 22, 2017 (GMT +0200)
Harare Kutsaga

Weather History for FVHA - February, 2013

Change the Weather History Date:

Wednesday, February 27, 2013

  Actual Average Record
Temperature  
Mean Temperature 70 °F -  
Max Temperature 81 °F 79 °F 85 °F (2015)
Min Temperature 58 °F 58 °F 57 °F (2012)
Cooling Degree Days 4    
Growing Degree Days 20 (Base 50)    
Moisture  
Dew Point 59 °F    
Average Humidity 70    
Maximum Humidity 100    
Minimum Humidity 33    
Precipitation  
Precipitation 0.00 in 0.13 in - ()
Sea Level Pressure  
Sea Level Pressure 30.20 in    
Wind  
Wind Speed 6 mph ()    
Max Wind Speed 12 mph    
Max Gust Speed -    
Visibility 8.2 miles    
Events      
Averages and records for this station are not official NWS values.
T = Trace of Precipitation, MM = Missing Value Source: Averaged Metar Reports

Daily Weather History Graph

Daily Weather History Graph

Search for Another Location

Airport or City:

Trip Planner

Search our weather history database for the weather conditions in past years. The results will help you decide how hot, cold, wet, or windy it might be!

Date:

Astronomy

Feb. 27, 2013 Rise Set
Actual Time 5:53 AM CAT 6:22 PM CAT
Civil Twilight 5:31 AM CAT 6:44 PM CAT
Nautical Twilight 5:06 AM CAT 7:09 PM CAT
Astronomical Twilight 4:40 AM CAT 7:35 PM CAT
Moon 7:22 PM CAT (2/27) 7:06 AM CAT (2/27)
Length of Visible Light 13h 12m
Length of Day
12h 28m
Full, 97% of the Moon is Illuminated
Feb 27
Full
Mar 4
Last Quarter
Mar 11
New
Mar 19
First Quarter
Mar 27
Full

Hourly Weather History & Observations

Time (CAT) Temp. Dew Point Humidity Pressure Visibility Wind Dir Wind Speed Gust Speed Precip Events Conditions
12:00 AM 64.4 °F 60.8 °F 88% 30.24 in 6.2 mi NE 8.1 mph - N/A   Scattered Clouds
2:00 AM 62 °F 60 °F 91%  in 19 mi NE 6.9 mph - -  
2:00 AM 62.6 °F 60.8 °F 94% 30.21 in - NE 6.9 mph - N/A   Clear
3:00 AM 60.8 °F 59.0 °F 94% 30.21 in 6.2 mi ENE 5.8 mph - N/A   Partly Cloudy
5:00 AM 59.0 °F 59.0 °F 100% 30.21 in 6.2 mi ENE 5.8 mph - N/A   Partly Cloudy
6:00 AM 59.0 °F 59.0 °F 100% 30.24 in 6.2 mi East 3.5 mph - N/A   Scattered Clouds
7:00 AM 64.4 °F 60.8 °F 88% 30.24 in 6.2 mi NNE 8.1 mph - N/A   Scattered Clouds
8:00 AM 66 °F 60 °F 77%  in 19 mi NE 11.5 mph - -   Partly Cloudy
8:00 AM 66.2 °F 60.8 °F 83% 30.24 in 6.2 mi NE 11.5 mph - N/A   Scattered Clouds
9:00 AM 71.6 °F 60.8 °F 69% 30.27 in 6.2 mi NE 9.2 mph - N/A   Scattered Clouds
10:00 AM 73.4 °F 59.0 °F 61% 30.27 in 6.2 mi ENE 5.8 mph - N/A   Mostly Cloudy
11:00 AM 73.4 °F 59.0 °F 61% 30.27 in 6.2 mi Variable 3.5 mph - N/A   Mostly Cloudy
12:00 PM 75.2 °F 57.2 °F 53% 30.24 in 6.2 mi North 5.8 mph - N/A   Mostly Cloudy
1:00 PM 78.8 °F 57.2 °F 47% 30.21 in 6.2 mi NNW 5.8 mph - N/A   Mostly Cloudy
2:00 PM 79 °F 55 °F 33%  in 19 mi NE 3.5 mph - -   Mostly Cloudy
2:00 PM 78.8 °F 55.4 °F 44% 30.18 in 6.2 mi NE 3.5 mph - N/A   Mostly Cloudy
3:00 PM 77.0 °F 57.2 °F 50% 30.15 in 6.2 mi ENE 5.8 mph - N/A   Scattered Clouds
4:00 PM 77.0 °F 57.2 °F 50% 30.12 in 6.2 mi Variable 1.2 mph - N/A   Scattered Clouds
5:00 PM 77.0 °F 59.0 °F 54% 30.12 in 6.2 mi North 5.8 mph - N/A   Scattered Clouds
6:00 PM 75.2 °F 59.0 °F 57% 30.12 in 6.2 mi NNE 5.8 mph - N/A   Scattered Clouds
7:00 PM 73.4 °F 59.0 °F 61% 30.15 in 6.2 mi North 6.9 mph - N/A   Scattered Clouds
8:00 PM 70 °F 59 °F 61%  in 19 mi NNE 5.8 mph - -   Partly Cloudy
8:00 PM 69.8 °F 59.0 °F 68% 30.15 in 6.2 mi NNE 5.8 mph - N/A   Scattered Clouds
9:00 PM 68.0 °F 59.0 °F 73% 30.15 in 6.2 mi North 5.8 mph - N/A   Scattered Clouds
10:00 PM 68.0 °F 59.0 °F 73% 30.18 in 6.2 mi NE 9.2 mph - N/A   Partly Cloudy
11:00 PM 66.2 °F 59.0 °F 78% 30.18 in 6.2 mi ENE 8.1 mph - N/A   Partly Cloudy